Change the Weather History Date:

Sunday, August 17, 2014

  Actual Average Record
Temperature  
Mean Temperature 84 °F -  
Max Temperature 95 °F 91 °F 99 °F (1968)
Min Temperature 73 °F 71 °F 46 °F (1998)
Cooling Degree Days 19    
Growing Degree Days 34 (Base 50)    
Moisture  
Dew Point 70 °F    
Average Humidity 64    
Maximum Humidity 91    
Minimum Humidity 37    
Precipitation  
Precipitation 0.00 in - - ()
Sea Level Pressure  
Sea Level Pressure 30.02 in    
Wind  
Wind Speed 5 mph (SW)    
Max Wind Speed 13 mph    
Max Gust Speed -    
Visibility 10 miles    
Events      
Averages and records for this station are not official NWS values.
T = Trace of Precipitation, MM = Missing Value Source: NWS Daily Summary

Daily Weather History Graph

Daily Weather History Graph

Search for Another Location

Airport or City:

Trip Planner

Search our weather history database for the weather conditions in past years. The results will help you decide how hot, cold, wet, or windy it might be!

Date:

Astronomy

Aug. 17, 2014 Rise Set
Actual Time 6:52 AM EDT 8:07 PM EDT
Civil Twilight 6:26 AM EDT 8:33 PM EDT
Nautical Twilight 5:56 AM EDT 9:03 PM EDT
Astronomical Twilight 5:24 AM EDT 9:35 PM EDT
Moon 12:18 AM EDT (8/17) 2:08 PM EDT (8/17)
Length of Visible Light 14h 06m
Length of Day
13h 15m
Waning Gibbous, 48% of the Moon is Illuminated
Aug 17
Waning Gibbous
Aug 25
New
Sep 2
First Quarter
Sep 8
Full
Sep 15
Last Quarter

Hourly Weather History & Observations

Time (EDT) Temp. Heat Index Dew Point Humidity Pressure Visibility Wind Dir Wind Speed Gust Speed Precip Events Conditions
12:58 AM 77.7 °F - 73.8 °F 88% 30.02 in 10.0 mi South 3.5 mph - N/A   Clear
1:58 AM 77.2 °F - 73.4 °F 88% 30.01 in 10.0 mi SSW 3.5 mph - N/A   Clear
2:58 AM 77.4 °F - 72.7 °F 85% 30.01 in 10.0 mi SW 6.9 mph - N/A   Clear
3:58 AM 76.8 °F - 71.8 °F 84% 30.01 in 10.0 mi SW 4.6 mph - N/A   Clear
4:58 AM 75.9 °F - 71.4 °F 86% 30.01 in 10.0 mi SW 5.8 mph - N/A   Clear
5:58 AM 74.8 °F - 71.2 °F 88% 30.03 in 10.0 mi SW 4.6 mph - N/A   Clear
6:58 AM 73.4 °F - 70.7 °F 91% 30.04 in 10.0 mi Calm Calm - N/A   Clear
7:58 AM 75.0 °F - 71.6 °F 89% 30.06 in 10.0 mi WSW 4.6 mph - N/A   Clear
8:58 AM 79.3 °F - 70.2 °F 73% 30.06 in 10.0 mi West 4.6 mph - N/A   Clear
9:58 AM 83.5 °F 87.4 °F 69.8 °F 63% 30.07 in 10.0 mi WSW 8.1 mph - N/A   Clear
10:58 AM 88.2 °F 92.9 °F 69.8 °F 54% 30.07 in 10.0 mi WNW 4.6 mph - N/A   Clear
11:58 AM 91.4 °F 94.9 °F 67.3 °F 45% 30.06 in 10.0 mi West 6.9 mph - N/A   Clear
12:58 PM 93.6 °F 95.5 °F 64.8 °F 38% 30.04 in 10.0 mi West 11.5 mph - N/A   Partly Cloudy
1:58 PM 94.1 °F 97.9 °F 66.9 °F 41% 30.02 in 10.0 mi WSW 9.2 mph - N/A   Scattered Clouds
2:58 PM 95.5 °F 98.9 °F 66.0 °F 38% 30.00 in 10.0 mi WSW 11.5 mph - N/A   Clear
3:58 PM 95.9 °F 99.0 °F 65.5 °F 37% 29.99 in 10.0 mi SW 9.2 mph - N/A   Partly Cloudy
4:58 PM 95.4 °F 98.1 °F 65.7 °F 37% 29.98 in 10.0 mi WSW 5.8 mph - N/A   Partly Cloudy
5:58 PM 93.9 °F 97.5 °F 66.7 °F 41% 29.97 in 10.0 mi SSW 5.8 mph - N/A   Mostly Cloudy
6:58 PM 92.1 °F 97.2 °F 69.4 °F 47% 29.97 in 10.0 mi SSW 9.2 mph - N/A   Clear
7:58 PM 89.1 °F 93.3 °F 68.5 °F 51% 29.97 in 10.0 mi South 3.5 mph - N/A   Clear
8:58 PM 86.0 °F 92.2 °F 72.0 °F 63% 29.98 in 10.0 mi SW 12.7 mph - N/A   Scattered Clouds
9:58 PM 83.1 °F 86.6 °F 69.1 °F 62% 30.00 in 10.0 mi SW 5.8 mph - N/A   Scattered Clouds
10:58 PM 81.0 °F 84.4 °F 70.0 °F 69% 30.01 in 10.0 mi Calm Calm - N/A   Clear
11:58 PM 79.5 °F - 70.3 °F 73% 30.02 in 10.0 mi SSW 3.5 mph - N/A   Clear